Year,Month,Day,Hour,Minute,Value (Times are PST for temperature in C)
2016,02,25,00,00,5.90
2016,02,25,00,01,5.90
2016,02,25,00,02,5.80
2016,02,25,00,03,5.80
2016,02,25,00,04,5.80
2016,02,25,00,05,5.70
2016,02,25,00,06,5.70
2016,02,25,00,07,5.70
2016,02,25,00,08,5.70
2016,02,25,00,09,5.80
2016,02,25,00,10,5.80
2016,02,25,00,11,5.80
2016,02,25,00,12,5.80
2016,02,25,00,13,5.90
2016,02,25,00,14,5.90
2016,02,25,00,15,6.00
2016,02,25,00,16,6.00
2016,02,25,00,17,6.10
2016,02,25,00,18,6.10
2016,02,25,00,19,6.10
2016,02,25,00,20,6.20
2016,02,25,00,21,6.20
2016,02,25,00,22,6.20
2016,02,25,00,23,6.20
2016,02,25,00,24,6.30
2016,02,25,00,25,6.30
2016,02,25,00,26,6.30
2016,02,25,00,27,6.30
2016,02,25,00,28,6.30
2016,02,25,00,29,6.20
2016,02,25,00,30,6.20
2016,02,25,00,31,6.20
2016,02,25,00,32,6.20
2016,02,25,00,33,6.20
2016,02,25,00,34,6.20
2016,02,25,00,35,6.20
2016,02,25,00,36,6.20
2016,02,25,00,37,6.20
2016,02,25,00,38,6.10
2016,02,25,00,39,6.10
2016,02,25,00,40,6.10
2016,02,25,00,41,6.10
2016,02,25,00,42,6.10
2016,02,25,00,43,6.10
2016,02,25,00,44,6.00
2016,02,25,00,45,6.00
2016,02,25,00,46,5.90
2016,02,25,00,47,5.90
2016,02,25,00,48,5.80
2016,02,25,00,49,5.70
2016,02,25,00,50,5.70
2016,02,25,00,51,5.60
2016,02,25,00,52,5.50
2016,02,25,00,53,5.40
2016,02,25,00,54,5.30
2016,02,25,00,55,5.30
2016,02,25,00,56,5.20
2016,02,25,00,57,5.20
2016,02,25,00,58,5.20
2016,02,25,00,59,5.20
2016,02,25,01,00,5.20
2016,02,25,01,01,5.20
2016,02,25,01,02,5.20
2016,02,25,01,03,5.20
2016,02,25,01,04,5.30
2016,02,25,01,05,5.20
2016,02,25,01,06,5.30
2016,02,25,01,07,5.30
2016,02,25,01,08,5.20
2016,02,25,01,09,5.20
2016,02,25,01,10,5.20
2016,02,25,01,11,5.20
2016,02,25,01,12,5.20
2016,02,25,01,13,5.10
2016,02,25,01,14,5.10
2016,02,25,01,15,5.00
2016,02,25,01,16,5.00
2016,02,25,01,17,4.90
2016,02,25,01,18,4.80
2016,02,25,01,19,4.80
2016,02,25,01,20,4.80
2016,02,25,01,21,4.70
2016,02,25,01,22,4.70
2016,02,25,01,23,4.70
2016,02,25,01,24,4.70
2016,02,25,01,25,4.70
2016,02,25,01,26,4.70
2016,02,25,01,27,4.70
2016,02,25,01,28,4.70
2016,02,25,01,29,4.70
2016,02,25,01,30,4.70
2016,02,25,01,31,4.80
2016,02,25,01,32,4.80
2016,02,25,01,33,4.90
2016,02,25,01,34,5.00
2016,02,25,01,35,5.10
2016,02,25,01,36,5.10
2016,02,25,01,37,5.20
2016,02,25,01,38,5.30
2016,02,25,01,39,5.30
2016,02,25,01,40,5.40
2016,02,25,01,41,5.40
2016,02,25,01,42,5.50
2016,02,25,01,43,5.50
2016,02,25,01,44,5.60
2016,02,25,01,45,5.60
2016,02,25,01,46,5.60
2016,02,25,01,47,5.60
2016,02,25,01,48,5.60
2016,02,25,01,49,5.60
2016,02,25,01,50,5.60
2016,02,25,01,51,5.60
2016,02,25,01,52,5.50
2016,02,25,01,53,5.50
2016,02,25,01,54,5.50
2016,02,25,01,55,5.40
2016,02,25,01,56,5.40
2016,02,25,01,57,5.40
2016,02,25,01,58,5.40
2016,02,25,01,59,5.30
2016,02,25,02,00,5.30
2016,02,25,02,01,5.30
2016,02,25,02,02,5.30
2016,02,25,02,03,5.30
2016,02,25,02,04,5.30
2016,02,25,02,05,5.30
2016,02,25,02,06,5.30
2016,02,25,02,07,5.40
2016,02,25,02,08,5.40
2016,02,25,02,09,5.50
2016,02,25,02,10,5.60
2016,02,25,02,11,5.60
2016,02,25,02,12,5.70
2016,02,25,02,13,5.70
2016,02,25,02,14,5.70
2016,02,25,02,15,5.70
2016,02,25,02,16,5.70
2016,02,25,02,17,5.80
2016,02,25,02,18,5.80
2016,02,25,02,19,5.80
2016,02,25,02,20,5.80
2016,02,25,02,21,5.80
2016,02,25,02,22,5.70
2016,02,25,02,23,5.70
2016,02,25,02,24,5.70
2016,02,25,02,25,5.70
2016,02,25,02,26,5.70
2016,02,25,02,27,5.70
2016,02,25,02,28,5.70
2016,02,25,02,29,5.70
2016,02,25,02,30,5.70
2016,02,25,02,31,5.70
2016,02,25,02,32,5.70
2016,02,25,02,33,5.70
2016,02,25,02,34,5.70
2016,02,25,02,35,5.60
2016,02,25,02,36,5.60
2016,02,25,02,37,5.60
2016,02,25,02,38,5.50
2016,02,25,02,39,5.50
2016,02,25,02,40,5.40
2016,02,25,02,41,5.40
2016,02,25,02,42,5.40
2016,02,25,02,43,5.40
2016,02,25,02,44,5.40
2016,02,25,02,45,5.40
2016,02,25,02,46,5.50
2016,02,25,02,47,5.50
2016,02,25,02,48,5.60
2016,02,25,02,49,5.60
2016,02,25,02,50,5.60
2016,02,25,02,51,5.60
2016,02,25,02,52,5.60
2016,02,25,02,53,5.60
2016,02,25,02,54,5.60
2016,02,25,02,55,5.60
2016,02,25,02,56,5.60
2016,02,25,02,57,5.60
2016,02,25,02,58,5.60
2016,02,25,02,59,5.60
2016,02,25,03,00,5.70
2016,02,25,03,01,5.60
2016,02,25,03,02,5.60
2016,02,25,03,03,5.60
2016,02,25,03,04,5.60
2016,02,25,03,05,5.60
2016,02,25,03,06,5.60
2016,02,25,03,07,5.60
2016,02,25,03,08,5.60
2016,02,25,03,09,5.60
2016,02,25,03,10,5.60
2016,02,25,03,11,5.60
2016,02,25,03,12,5.60
2016,02,25,03,13,5.60
2016,02,25,03,14,5.60
2016,02,25,03,15,5.60
2016,02,25,03,16,5.60
2016,02,25,03,17,5.60
2016,02,25,03,18,5.60
2016,02,25,03,19,5.60
2016,02,25,03,20,5.60
2016,02,25,03,21,5.70
2016,02,25,03,22,5.70
2016,02,25,03,23,5.70
2016,02,25,03,24,5.70
2016,02,25,03,25,5.70
2016,02,25,03,26,5.70
2016,02,25,03,27,5.70
2016,02,25,03,28,5.70
2016,02,25,03,29,5.70
2016,02,25,03,30,5.70
2016,02,25,03,31,5.80
2016,02,25,03,32,5.80
2016,02,25,03,33,5.80
2016,02,25,03,34,5.80
2016,02,25,03,35,5.80
2016,02,25,03,36,5.70
2016,02,25,03,37,5.80
2016,02,25,03,38,5.70
2016,02,25,03,39,5.80
2016,02,25,03,40,5.80
2016,02,25,03,41,5.80
2016,02,25,03,42,5.80
2016,02,25,03,43,5.80
2016,02,25,03,44,5.70
2016,02,25,03,45,5.70
2016,02,25,03,46,5.70
2016,02,25,03,47,5.70
2016,02,25,03,48,5.70
2016,02,25,03,49,5.70
2016,02,25,03,50,5.60
2016,02,25,03,51,5.60
2016,02,25,03,52,5.60
2016,02,25,03,53,5.60
2016,02,25,03,54,5.60
2016,02,25,03,55,5.60
2016,02,25,03,56,5.60
2016,02,25,03,57,5.60
2016,02,25,03,58,5.60
2016,02,25,03,59,5.70
2016,02,25,04,00,5.70
2016,02,25,04,01,5.70
2016,02,25,04,02,5.80
2016,02,25,04,03,5.80
2016,02,25,04,04,5.70
2016,02,25,04,05,5.70
2016,02,25,04,06,5.60
2016,02,25,04,07,5.60
2016,02,25,04,08,5.50
2016,02,25,04,09,5.40
2016,02,25,04,10,5.40
2016,02,25,04,11,5.30
2016,02,25,04,12,5.30
2016,02,25,04,13,5.20
2016,02,25,04,14,5.20
2016,02,25,04,15,5.20
2016,02,25,04,16,5.20
2016,02,25,04,17,5.20
2016,02,25,04,18,5.20
2016,02,25,04,19,5.20
2016,02,25,04,20,5.20
2016,02,25,04,21,5.20
2016,02,25,04,22,5.20
2016,02,25,04,23,5.20
2016,02,25,04,24,5.20
2016,02,25,04,25,5.20
2016,02,25,04,26,5.30
2016,02,25,04,27,5.30
2016,02,25,04,28,5.30
2016,02,25,04,29,5.30
2016,02,25,04,30,5.30
2016,02,25,04,31,5.30
2016,02,25,04,32,5.30
2016,02,25,04,33,5.20
2016,02,25,04,34,5.20
2016,02,25,04,35,5.10
2016,02,25,04,36,5.10
2016,02,25,04,37,5.00
2016,02,25,04,38,4.90
2016,02,25,04,39,4.80
2016,02,25,04,40,4.70
2016,02,25,04,41,4.70
2016,02,25,04,42,4.60
2016,02,25,04,43,4.50
2016,02,25,04,44,4.50
2016,02,25,04,45,4.40
2016,02,25,04,46,4.40
2016,02,25,04,47,4.40
2016,02,25,04,48,4.50
2016,02,25,04,49,4.50
2016,02,25,04,50,4.60
2016,02,25,04,51,4.60
2016,02,25,04,52,4.70
2016,02,25,04,53,4.80
2016,02,25,04,54,4.90
2016,02,25,04,55,5.00
2016,02,25,04,56,5.10
2016,02,25,04,57,5.20
2016,02,25,04,58,5.20
2016,02,25,04,59,5.30
2016,02,25,05,00,5.40
2016,02,25,05,01,5.50
2016,02,25,05,02,5.50
2016,02,25,05,03,5.60
2016,02,25,05,04,5.70
2016,02,25,05,05,5.70
2016,02,25,05,06,5.80
2016,02,25,05,07,5.80
2016,02,25,05,08,5.80
2016,02,25,05,09,5.90
2016,02,25,05,10,5.90
2016,02,25,05,11,6.00
2016,02,25,05,12,6.00
2016,02,25,05,13,6.00
2016,02,25,05,14,6.10
2016,02,25,05,15,6.10
2016,02,25,05,16,6.10
2016,02,25,05,17,6.10
2016,02,25,05,18,6.20
2016,02,25,05,19,6.20
2016,02,25,05,20,6.20
2016,02,25,05,21,6.20
2016,02,25,05,22,6.20
2016,02,25,05,23,6.20
2016,02,25,05,24,6.20
2016,02,25,05,25,6.20
2016,02,25,05,26,6.20
2016,02,25,05,27,6.20
2016,02,25,05,28,6.20
2016,02,25,05,29,6.20
2016,02,25,05,30,6.20
2016,02,25,05,31,6.20
2016,02,25,05,32,6.20
2016,02,25,05,33,6.20
2016,02,25,05,34,6.20
2016,02,25,05,35,6.20
2016,02,25,05,36,6.20
2016,02,25,05,37,6.20
2016,02,25,05,38,6.20
2016,02,25,05,39,6.20
2016,02,25,05,40,6.20
2016,02,25,05,41,6.30
2016,02,25,05,42,6.30
2016,02,25,05,43,6.30
2016,02,25,05,44,6.30
2016,02,25,05,45,6.30
2016,02,25,05,46,6.30
2016,02,25,05,47,6.40
2016,02,25,05,48,6.40
2016,02,25,05,49,6.40
2016,02,25,05,50,6.40
2016,02,25,05,51,6.50
2016,02,25,05,52,6.50
2016,02,25,05,53,6.60
2016,02,25,05,54,6.60
2016,02,25,05,55,6.60
2016,02,25,05,56,6.60
2016,02,25,05,57,6.60
2016,02,25,05,58,6.60
2016,02,25,05,59,6.60
2016,02,25,06,00,6.60
2016,02,25,06,01,6.60
2016,02,25,06,02,6.60
2016,02,25,06,03,6.60
2016,02,25,06,04,6.60
2016,02,25,06,05,6.60
2016,02,25,06,06,6.60
2016,02,25,06,07,6.70
2016,02,25,06,08,6.70
2016,02,25,06,09,6.70
2016,02,25,06,10,6.70
2016,02,25,06,11,6.70
2016,02,25,06,12,6.70
2016,02,25,06,13,6.70
2016,02,25,06,14,6.70
2016,02,25,06,15,6.70
2016,02,25,06,16,6.70
2016,02,25,06,17,6.70
2016,02,25,06,18,6.70
2016,02,25,06,19,6.70
2016,02,25,06,20,6.70
2016,02,25,06,21,6.70
2016,02,25,06,22,6.70
2016,02,25,06,23,6.70
2016,02,25,06,24,6.70
2016,02,25,06,25,6.70
2016,02,25,06,26,6.70
2016,02,25,06,27,6.70
2016,02,25,06,28,6.70
2016,02,25,06,29,6.70
2016,02,25,06,30,6.70
2016,02,25,06,31,6.70
2016,02,25,06,32,6.70
2016,02,25,06,33,6.70
2016,02,25,06,34,6.70
2016,02,25,06,35,6.70
2016,02,25,06,36,6.70
2016,02,25,06,37,6.70
2016,02,25,06,38,6.80
2016,02,25,06,39,6.80
2016,02,25,06,40,6.80
2016,02,25,06,41,6.80
2016,02,25,06,42,6.80
2016,02,25,06,43,6.80
2016,02,25,06,44,6.80
2016,02,25,06,45,6.80
2016,02,25,06,46,6.80
2016,02,25,06,47,6.80
2016,02,25,06,48,6.90
2016,02,25,06,49,6.90
2016,02,25,06,50,6.90
2016,02,25,06,51,6.90
2016,02,25,06,52,6.90
2016,02,25,06,53,7.00
2016,02,25,06,54,6.90
2016,02,25,06,55,7.00
2016,02,25,06,56,7.00
2016,02,25,06,57,7.00
2016,02,25,06,58,7.00
2016,02,25,06,59,7.00
2016,02,25,07,00,7.00
2016,02,25,07,01,7.00
2016,02,25,07,02,7.00
2016,02,25,07,03,7.00
2016,02,25,07,04,7.00
2016,02,25,07,05,7.00
2016,02,25,07,06,7.00
2016,02,25,07,07,7.00
2016,02,25,07,08,7.00
2016,02,25,07,09,7.00
2016,02,25,07,10,6.90
2016,02,25,07,11,6.90
2016,02,25,07,12,6.90
2016,02,25,07,13,6.90
2016,02,25,07,14,6.90
2016,02,25,07,15,6.90
2016,02,25,07,16,6.90
2016,02,25,07,17,6.90
2016,02,25,07,18,6.90
2016,02,25,07,19,6.90
2016,02,25,07,20,6.90
2016,02,25,07,21,6.90
2016,02,25,07,22,6.90
2016,02,25,07,23,6.90
2016,02,25,07,24,6.90
2016,02,25,07,25,6.90
2016,02,25,07,26,6.90
2016,02,25,07,27,6.90
2016,02,25,07,28,6.90
2016,02,25,07,29,6.90
2016,02,25,07,30,6.90
2016,02,25,07,31,6.90
2016,02,25,07,32,6.90
2016,02,25,07,33,7.00
2016,02,25,07,34,7.00
2016,02,25,07,35,7.00
2016,02,25,07,36,7.00
2016,02,25,07,37,7.00
2016,02,25,07,38,7.10
2016,02,25,07,39,7.10
2016,02,25,07,40,7.10
2016,02,25,07,41,7.10
2016,02,25,07,42,7.10
2016,02,25,07,43,7.10
2016,02,25,07,44,7.10
2016,02,25,07,45,7.10
2016,02,25,07,46,7.10
2016,02,25,07,47,7.20
2016,02,25,07,48,7.20
2016,02,25,07,49,7.20
2016,02,25,07,50,7.20
2016,02,25,07,51,7.30
2016,02,25,07,52,7.30
2016,02,25,07,53,7.30
2016,02,25,07,54,7.30
2016,02,25,07,55,7.30
2016,02,25,07,56,7.40
2016,02,25,07,57,7.40
2016,02,25,07,58,7.40
2016,02,25,07,59,7.50
2016,02,25,08,00,7.50
2016,02,25,08,01,7.50
2016,02,25,08,02,7.50
2016,02,25,08,03,7.60
2016,02,25,08,04,7.60
2016,02,25,08,05,7.60
2016,02,25,08,06,7.70
2016,02,25,08,07,7.70
2016,02,25,08,08,7.70
2016,02,25,08,09,7.70
2016,02,25,08,10,7.80
2016,02,25,08,11,7.80
2016,02,25,08,12,7.80
2016,02,25,08,13,7.90
2016,02,25,08,14,7.90
2016,02,25,08,15,7.90
2016,02,25,08,16,8.00
2016,02,25,08,17,8.00
2016,02,25,08,18,8.00
2016,02,25,08,19,8.10
2016,02,25,08,20,8.10
2016,02,25,08,21,8.10
2016,02,25,08,22,8.10
2016,02,25,08,23,8.20
2016,02,25,08,24,8.20
2016,02,25,08,25,8.20
2016,02,25,08,26,8.20
2016,02,25,08,27,8.20
2016,02,25,08,28,8.20
2016,02,25,08,29,8.20
2016,02,25,08,30,8.20
2016,02,25,08,31,8.20
2016,02,25,08,32,8.20
2016,02,25,08,33,8.30
2016,02,25,08,34,8.20
2016,02,25,08,35,8.20
2016,02,25,08,36,8.30
2016,02,25,08,37,8.30
2016,02,25,08,38,8.30
2016,02,25,08,39,8.30
2016,02,25,08,40,8.30
2016,02,25,08,41,8.30
2016,02,25,08,42,8.30
2016,02,25,08,43,8.30
2016,02,25,08,44,8.30
2016,02,25,08,45,8.30
2016,02,25,08,46,8.30
2016,02,25,08,47,8.30
2016,02,25,08,48,8.30
2016,02,25,08,49,8.30
2016,02,25,08,50,8.30
2016,02,25,08,51,8.30
2016,02,25,08,52,8.30
2016,02,25,08,53,8.30
2016,02,25,08,54,8.30
2016,02,25,08,55,8.40
2016,02,25,08,56,8.30
2016,02,25,08,57,8.30
2016,02,25,08,58,8.30
2016,02,25,08,59,8.30
2016,02,25,09,00,8.30
2016,02,25,09,01,8.30
2016,02,25,09,02,8.30
2016,02,25,09,03,8.30
2016,02,25,09,04,8.30
2016,02,25,09,05,8.30
2016,02,25,09,06,8.30
2016,02,25,09,07,8.30
2016,02,25,09,08,8.30
2016,02,25,09,09,8.30
2016,02,25,09,10,8.30
2016,02,25,09,11,8.30
2016,02,25,09,12,8.20
2016,02,25,09,13,8.20
2016,02,25,09,14,8.20
2016,02,25,09,15,8.20
2016,02,25,09,16,8.30
2016,02,25,09,17,8.30
2016,02,25,09,18,8.30
2016,02,25,09,19,8.30
2016,02,25,09,20,8.30
2016,02,25,09,21,8.30
2016,02,25,09,22,8.40
2016,02,25,09,23,8.40
2016,02,25,09,24,8.40
2016,02,25,09,25,8.40
2016,02,25,09,26,8.50
2016,02,25,09,27,8.50
2016,02,25,09,28,8.50
2016,02,25,09,29,8.60
2016,02,25,09,30,8.60
2016,02,25,09,31,8.60
2016,02,25,09,32,8.60
2016,02,25,09,33,8.70
2016,02,25,09,34,8.60
2016,02,25,09,35,8.70
2016,02,25,09,36,8.60
2016,02,25,09,37,8.60
2016,02,25,09,38,8.60
2016,02,25,09,39,8.70
2016,02,25,09,40,8.70
2016,02,25,09,41,8.70
2016,02,25,09,42,8.70
2016,02,25,09,43,8.70
2016,02,25,09,44,8.70
2016,02,25,09,45,8.80
2016,02,25,09,46,8.80
2016,02,25,09,47,8.80
2016,02,25,09,48,8.80
2016,02,25,09,49,8.80
2016,02,25,09,50,8.90
2016,02,25,09,51,8.90
2016,02,25,09,52,9.00
2016,02,25,09,53,9.00
2016,02,25,09,54,9.10
2016,02,25,09,55,9.10
2016,02,25,09,56,9.20
2016,02,25,09,57,9.20
2016,02,25,09,58,9.20
2016,02,25,09,59,9.20
2016,02,25,10,00,9.20
2016,02,25,10,01,9.30
2016,02,25,10,02,9.30
2016,02,25,10,03,9.30
2016,02,25,10,04,9.40
2016,02,25,10,05,9.40
2016,02,25,10,06,9.40
2016,02,25,10,07,9.40
2016,02,25,10,08,9.50
2016,02,25,10,09,9.50
2016,02,25,10,10,9.60
2016,02,25,10,11,9.60
2016,02,25,10,12,9.70
2016,02,25,10,13,9.70
2016,02,25,10,14,9.70
2016,02,25,10,15,9.70
2016,02,25,10,16,9.70
2016,02,25,10,17,9.80
2016,02,25,10,18,9.80
2016,02,25,10,19,9.80
2016,02,25,10,20,9.90
2016,02,25,10,21,9.90
2016,02,25,10,22,9.90
2016,02,25,10,23,9.90
2016,02,25,10,24,10.00
2016,02,25,10,25,10.00
2016,02,25,10,26,10.00
2016,02,25,10,27,10.00
2016,02,25,10,28,10.00
2016,02,25,10,29,10.00
2016,02,25,10,30,10.00
2016,02,25,10,31,10.00
2016,02,25,10,32,9.90
2016,02,25,10,33,9.90
2016,02,25,10,34,9.90
2016,02,25,10,35,9.90
2016,02,25,10,36,9.90
2016,02,25,10,37,9.90
2016,02,25,10,38,9.90
2016,02,25,10,39,9.90
2016,02,25,10,40,9.90
2016,02,25,10,41,9.90
2016,02,25,10,42,9.90
2016,02,25,10,43,9.90
2016,02,25,10,44,9.90
2016,02,25,10,45,10.00
2016,02,25,10,46,10.00
2016,02,25,10,47,10.10
2016,02,25,10,48,10.10
2016,02,25,10,49,10.20
2016,02,25,10,50,10.20
2016,02,25,10,51,10.20
2016,02,25,10,52,10.20
2016,02,25,10,53,10.30
2016,02,25,10,54,10.30
2016,02,25,10,55,10.40
2016,02,25,10,56,10.40
2016,02,25,10,57,10.40
2016,02,25,10,58,10.40
2016,02,25,10,59,10.50
2016,02,25,11,00,10.60
2016,02,25,11,01,10.60
2016,02,25,11,02,10.60
2016,02,25,11,03,10.60
2016,02,25,11,04,10.70
2016,02,25,11,05,10.70
2016,02,25,11,06,10.80
2016,02,25,11,07,10.80
2016,02,25,11,08,10.80
2016,02,25,11,09,10.80
2016,02,25,11,10,10.80
2016,02,25,11,11,10.90
2016,02,25,11,12,10.90
2016,02,25,11,13,11.00
2016,02,25,11,14,11.00
2016,02,25,11,15,11.10
2016,02,25,11,16,11.20
2016,02,25,11,17,11.20
2016,02,25,11,18,11.20
2016,02,25,11,19,11.30
2016,02,25,11,20,11.30
2016,02,25,11,21,11.30
2016,02,25,11,22,11.20
2016,02,25,11,23,11.20
2016,02,25,11,24,11.20
2016,02,25,11,25,11.20
2016,02,25,11,26,11.20
2016,02,25,11,27,11.30
2016,02,25,11,28,11.30
2016,02,25,11,29,11.30
2016,02,25,11,30,11.30
2016,02,25,11,31,11.20
2016,02,25,11,32,11.20
2016,02,25,11,33,11.20
2016,02,25,11,34,11.20
2016,02,25,11,35,11.20
2016,02,25,11,36,11.10
2016,02,25,11,37,11.10
2016,02,25,11,38,11.10
2016,02,25,11,39,11.00
2016,02,25,11,40,11.00
2016,02,25,11,41,10.90
2016,02,25,11,42,10.90
2016,02,25,11,43,10.80
2016,02,25,11,44,10.80
2016,02,25,11,45,10.80
2016,02,25,11,46,10.80
2016,02,25,11,47,10.80
2016,02,25,11,48,10.80
2016,02,25,11,49,10.80
2016,02,25,11,50,10.80
2016,02,25,11,51,10.80
2016,02,25,11,52,10.80
2016,02,25,11,53,10.90
2016,02,25,11,54,10.90
2016,02,25,11,55,10.90
2016,02,25,11,56,10.90
2016,02,25,11,57,10.90
2016,02,25,11,58,10.90
2016,02,25,11,59,10.90
2016,02,25,12,00,11.00
2016,02,25,12,01,11.00
2016,02,25,12,02,11.10
2016,02,25,12,03,11.10
2016,02,25,12,04,11.10
2016,02,25,12,05,11.10
2016,02,25,12,06,11.20
2016,02,25,12,07,11.20
2016,02,25,12,08,11.20
2016,02,25,12,09,11.20
2016,02,25,12,10,11.20
2016,02,25,12,11,11.20
2016,02,25,12,12,11.20
2016,02,25,12,13,11.20
2016,02,25,12,14,11.30
2016,02,25,12,15,11.30
2016,02,25,12,16,11.30
2016,02,25,12,17,11.30
2016,02,25,12,18,11.30
2016,02,25,12,19,11.30
2016,02,25,12,20,11.30
2016,02,25,12,21,11.30
2016,02,25,12,22,11.30
2016,02,25,12,23,11.30
2016,02,25,12,24,11.30
2016,02,25,12,25,11.30
2016,02,25,12,26,11.30
2016,02,25,12,27,11.30
2016,02,25,12,28,11.30
2016,02,25,12,29,11.30
2016,02,25,12,30,11.30
2016,02,25,12,31,11.30
2016,02,25,12,32,11.40
2016,02,25,12,33,11.40
2016,02,25,12,34,11.40
2016,02,25,12,35,11.40
2016,02,25,12,36,11.40
2016,02,25,12,37,11.40
2016,02,25,12,38,11.40
2016,02,25,12,39,11.40
2016,02,25,12,40,11.40
2016,02,25,12,41,11.40
2016,02,25,12,42,11.40
2016,02,25,12,43,11.40
2016,02,25,12,44,11.40
2016,02,25,12,45,11.40
2016,02,25,12,46,11.40
2016,02,25,12,47,11.40
2016,02,25,12,48,11.50
2016,02,25,12,49,11.50
2016,02,25,12,50,11.50
2016,02,25,12,51,11.50
2016,02,25,12,52,11.40
2016,02,25,12,53,11.50
2016,02,25,12,54,11.50
2016,02,25,12,55,11.50
2016,02,25,12,56,11.60
2016,02,25,12,57,11.50
2016,02,25,12,58,11.50
2016,02,25,12,59,11.50
2016,02,25,13,00,11.50
2016,02,25,13,01,11.60
2016,02,25,13,02,11.60
2016,02,25,13,03,11.60
2016,02,25,13,04,11.60
2016,02,25,13,05,11.60
2016,02,25,13,06,11.60
2016,02,25,13,07,11.60
2016,02,25,13,08,11.60
2016,02,25,13,09,11.70
2016,02,25,13,10,11.70
2016,02,25,13,11,11.70
2016,02,25,13,12,11.70
2016,02,25,13,13,11.70
2016,02,25,13,14,11.70
2016,02,25,13,15,11.80
2016,02,25,13,16,11.70
2016,02,25,13,17,11.70
2016,02,25,13,18,11.70
2016,02,25,13,19,11.70
2016,02,25,13,20,11.70
2016,02,25,13,21,11.80
2016,02,25,13,22,11.80
2016,02,25,13,23,11.80
2016,02,25,13,24,11.80
2016,02,25,13,25,11.80
2016,02,25,13,26,11.80
2016,02,25,13,27,11.80
2016,02,25,13,28,11.80
2016,02,25,13,29,11.90
2016,02,25,13,30,11.90
2016,02,25,13,31,11.90
2016,02,25,13,32,12.00
2016,02,25,13,33,12.00
2016,02,25,13,34,12.10
2016,02,25,13,35,12.10
2016,02,25,13,36,12.20
2016,02,25,13,37,12.20
2016,02,25,13,38,12.30
2016,02,25,13,39,12.30
2016,02,25,13,40,12.30
2016,02,25,13,41,12.40
2016,02,25,13,42,12.40
2016,02,25,13,43,12.40
2016,02,25,13,44,12.30
2016,02,25,13,45,12.20
2016,02,25,13,46,12.20
2016,02,25,13,47,12.10
2016,02,25,13,48,12.10
2016,02,25,13,49,12.10
2016,02,25,13,50,12.10
2016,02,25,13,51,12.20
2016,02,25,13,52,12.20
2016,02,25,13,53,12.20
2016,02,25,13,54,12.10
2016,02,25,13,55,12.10
2016,02,25,13,56,12.00
2016,02,25,13,57,12.00
2016,02,25,13,58,11.90
2016,02,25,13,59,11.90
2016,02,25,14,00,11.90
2016,02,25,14,01,11.80
2016,02,25,14,02,11.80
2016,02,25,14,03,11.80
2016,02,25,14,04,11.80
2016,02,25,14,05,11.80
2016,02,25,14,06,11.90
2016,02,25,14,07,11.90
2016,02,25,14,08,11.90
2016,02,25,14,09,11.90
2016,02,25,14,10,11.90
2016,02,25,14,11,11.90
2016,02,25,14,12,12.00
2016,02,25,14,13,12.00
2016,02,25,14,14,12.10
2016,02,25,14,15,12.20
2016,02,25,14,16,12.20
2016,02,25,14,17,12.30
2016,02,25,14,18,12.30
2016,02,25,14,19,12.30
2016,02,25,14,20,12.30
2016,02,25,14,21,12.20
2016,02,25,14,22,12.30
2016,02,25,14,23,12.30
2016,02,25,14,24,12.30
2016,02,25,14,25,12.20
2016,02,25,14,26,12.20
2016,02,25,14,27,12.30
2016,02,25,14,28,12.30
2016,02,25,14,29,12.30
2016,02,25,14,30,12.30
2016,02,25,14,31,12.30
2016,02,25,14,32,12.30
2016,02,25,14,33,12.30
2016,02,25,14,34,12.30
2016,02,25,14,35,12.40
2016,02,25,14,36,12.40
2016,02,25,14,37,12.40
2016,02,25,14,38,12.40
2016,02,25,14,39,12.40
2016,02,25,14,40,12.40
2016,02,25,14,41,12.40
2016,02,25,14,42,12.40
2016,02,25,14,43,12.40
2016,02,25,14,44,12.40
2016,02,25,14,45,12.50
2016,02,25,14,46,12.50
2016,02,25,14,47,12.50
2016,02,25,14,48,12.40
2016,02,25,14,49,12.40
2016,02,25,14,50,12.40
2016,02,25,14,51,12.40
2016,02,25,14,52,12.40
2016,02,25,14,53,12.40
2016,02,25,14,54,12.30
2016,02,25,14,55,12.30
2016,02,25,14,56,12.30
2016,02,25,14,57,12.30
2016,02,25,14,58,12.30
2016,02,25,14,59,12.30
2016,02,25,15,00,12.30
2016,02,25,15,01,12.40
2016,02,25,15,02,12.50
2016,02,25,15,03,12.50
2016,02,25,15,04,12.60
2016,02,25,15,05,12.60
2016,02,25,15,06,12.60
2016,02,25,15,07,12.70
2016,02,25,15,08,12.60
2016,02,25,15,09,12.60
2016,02,25,15,10,12.50
2016,02,25,15,11,12.40
2016,02,25,15,12,12.40
2016,02,25,15,13,12.40
2016,02,25,15,14,12.40
2016,02,25,15,15,12.40
2016,02,25,15,16,12.30
2016,02,25,15,17,12.30
2016,02,25,15,18,12.30
2016,02,25,15,19,12.30
2016,02,25,15,20,12.30
2016,02,25,15,21,12.30
2016,02,25,15,22,12.30
2016,02,25,15,23,12.30
2016,02,25,15,24,12.30
2016,02,25,15,25,12.30
2016,02,25,15,26,12.30
2016,02,25,15,27,12.30
2016,02,25,15,28,12.30
2016,02,25,15,29,12.40
2016,02,25,15,30,12.40
2016,02,25,15,31,12.40
2016,02,25,15,32,12.50
2016,02,25,15,33,12.50
2016,02,25,15,34,12.50
2016,02,25,15,35,12.50
2016,02,25,15,36,12.50
2016,02,25,15,37,12.60
2016,02,25,15,38,12.60
2016,02,25,15,39,12.60
2016,02,25,15,40,12.60
2016,02,25,15,41,12.60
2016,02,25,15,42,12.60
2016,02,25,15,43,12.60
2016,02,25,15,44,12.60
2016,02,25,15,45,12.60
2016,02,25,15,46,12.50
2016,02,25,15,47,12.50
2016,02,25,15,48,12.60
2016,02,25,15,49,12.60
2016,02,25,15,50,12.60
2016,02,25,15,51,12.70
2016,02,25,15,52,12.70
2016,02,25,15,53,12.70
2016,02,25,15,54,12.70
2016,02,25,15,55,12.80
2016,02,25,15,56,12.80
2016,02,25,15,57,12.80
2016,02,25,15,58,12.80
2016,02,25,15,59,12.80
2016,02,25,16,00,12.80
2016,02,25,16,01,12.80
2016,02,25,16,02,12.80
2016,02,25,16,03,12.80
2016,02,25,16,04,12.80
2016,02,25,16,05,12.80
2016,02,25,16,06,12.80
2016,02,25,16,07,12.80
2016,02,25,16,08,12.80
2016,02,25,16,09,12.70
2016,02,25,16,10,12.70
2016,02,25,16,11,12.70
2016,02,25,16,12,12.70
2016,02,25,16,13,12.70
2016,02,25,16,14,12.60
2016,02,25,16,15,12.60
2016,02,25,16,16,12.60
2016,02,25,16,17,12.60
2016,02,25,16,18,12.60
2016,02,25,16,19,12.50
2016,02,25,16,20,12.50
2016,02,25,16,21,12.40
2016,02,25,16,22,12.40
2016,02,25,16,23,12.40
2016,02,25,16,24,12.30
2016,02,25,16,25,12.30
2016,02,25,16,26,12.30
2016,02,25,16,27,12.20
2016,02,25,16,28,12.20
2016,02,25,16,29,12.20
2016,02,25,16,30,12.20
2016,02,25,16,31,12.20
2016,02,25,16,32,12.20
2016,02,25,16,33,12.20
2016,02,25,16,34,12.20
2016,02,25,16,35,12.20
2016,02,25,16,36,12.20
2016,02,25,16,37,12.20
2016,02,25,16,38,12.20
2016,02,25,16,39,12.20
2016,02,25,16,40,12.20
2016,02,25,16,41,12.20
2016,02,25,16,42,12.20
2016,02,25,16,43,12.20
2016,02,25,16,44,12.20
2016,02,25,16,45,12.20
2016,02,25,16,46,12.20
2016,02,25,16,47,12.20
2016,02,25,16,48,12.20
2016,02,25,16,49,12.20
2016,02,25,16,50,12.10
2016,02,25,16,51,12.10
2016,02,25,16,52,12.10
2016,02,25,16,53,12.10
2016,02,25,16,54,12.10
2016,02,25,16,55,12.10
2016,02,25,16,56,12.00
2016,02,25,16,57,12.00
2016,02,25,16,58,12.00
2016,02,25,16,59,11.90
2016,02,25,17,00,11.90
2016,02,25,17,01,11.90
2016,02,25,17,02,11.90
2016,02,25,17,03,11.80
2016,02,25,17,04,11.80
2016,02,25,17,05,11.80
2016,02,25,17,06,11.80
2016,02,25,17,07,11.70
2016,02,25,17,08,11.70
2016,02,25,17,09,11.70
2016,02,25,17,10,11.70
2016,02,25,17,11,11.70
2016,02,25,17,12,11.60
2016,02,25,17,13,11.60
2016,02,25,17,14,11.60
2016,02,25,17,15,11.60
2016,02,25,17,16,11.60
2016,02,25,17,17,11.50
2016,02,25,17,18,11.50
2016,02,25,17,19,11.40
2016,02,25,17,20,11.40
2016,02,25,17,21,11.40
2016,02,25,17,22,11.30
2016,02,25,17,23,11.30
2016,02,25,17,24,11.30
2016,02,25,17,25,11.30
2016,02,25,17,26,11.30
2016,02,25,17,27,11.20
2016,02,25,17,28,11.20
2016,02,25,17,29,11.20
2016,02,25,17,30,11.20
2016,02,25,17,31,11.10
2016,02,25,17,32,11.10
2016,02,25,17,33,11.10
2016,02,25,17,34,11.10
2016,02,25,17,35,11.00
2016,02,25,17,36,11.00
2016,02,25,17,37,11.00
2016,02,25,17,38,10.90
2016,02,25,17,39,10.90
2016,02,25,17,40,10.90
2016,02,25,17,41,10.90
2016,02,25,17,42,10.80
2016,02,25,17,43,10.80
2016,02,25,17,44,10.80
2016,02,25,17,45,10.80
2016,02,25,17,46,10.80
2016,02,25,17,47,10.80